| time (UTC) | temp F | wind direction | speed MPH | gust MPH | rain 1hr in | rain 24hr in | rain mn in | humidity % | barometer mb |
| 20260903212524 | 81 | 0.0 | 4.0 | 0.00 | 0.05 | 0.05 | 77 | 1010.7 | |
| 20260903211518 | 81 | 0.0 | 2.0 | 0.00 | 0.05 | 0.05 | 76 | 1010.6 | |
| 20260903210540 | 81 | 225 | 1.0 | 4.0 | 0.00 | 0.05 | 0.05 | 76 | 1010.5 |
| 20260903205520 | 81 | 0.0 | 2.0 | 0.00 | 0.05 | 0.05 | 76 | 1010.5 | |
| 20260903204519 | 81 | 0.0 | 3.0 | 0.00 | 0.05 | 0.05 | 75 | 1010.6 | |
| 20260903203520 | 81 | 270 | 1.0 | 3.0 | 0.00 | 0.05 | 0.05 | 75 | 1010.6 |
| 20260903202517 | 82 | 225 | 1.0 | 4.0 | 0.00 | 0.05 | 0.05 | 74 | 1010.7 |
| 20260903201527 | 82 | 0.0 | 2.0 | 0.00 | 0.05 | 0.05 | 74 | 1010.7 | |
| 20260903200541 | 82 | 0.0 | 2.0 | 0.00 | 0.05 | 0.05 | 72 | 1010.6 | |
| 20260903195523 | 83 | 0.0 | 3.0 | 0.00 | 0.05 | 0.05 | 71 | 1010.8 | |
| 20260903194537 | 84 | 0.0 | 1.0 | 0.00 | 0.05 | 0.05 | 70 | 1010.9 | |
| 20260903193520 | 84 | 248 | 1.0 | 4.0 | 0.00 | 0.05 | 0.05 | 69 | 1011.0 |
| 20260903192557 | 84 | 0.0 | 3.0 | 0.00 | 0.05 | 0.05 | 71 | 1011.1 | |
| 20260903191517 | 82 | 0.0 | 4.0 | 0.00 | 0.05 | 0.05 | 73 | 1011.2 | |
| 20260903190526 | 82 | 0.0 | 4.0 | 0.00 | 0.05 | 0.05 | 73 | 1011.3 | |
| 20260903185520 | 82 | 0.0 | 3.0 | 0.00 | 0.05 | 0.05 | 73 | 1011.3 | |
| 20260903184519 | 82 | 270 | 1.0 | 3.0 | 0.00 | 0.05 | 0.05 | 74 | 1011.5 |
| 20260903183518 | 82 | 0.0 | 1.0 | 0.00 | 0.05 | 0.05 | 73 | 1011.5 | |
| 20260903182517 | 82 | 0.0 | 1.0 | 0.00 | 0.05 | 0.05 | 75 | 1011.7 | |
| 20260903181518 | 81 | 0.0 | 1.0 | 0.00 | 0.05 | 0.05 | 75 | 1011.7 | |
| 20260903180518 | 80 | 0.0 | 1.0 | 0.00 | 0.05 | 0.05 | 75 | 1011.7 | |
| 20260903175537 | 80 | 0.0 | 0.0 | 0.00 | 0.05 | 0.05 | 78 | 1012.1 | |
| 20260903174558 | 79 | 0.0 | 0.0 | 0.00 | 0.05 | 0.05 | 77 | 1012.1 | |
| 20260903173519 | 80 | 0.0 | 0.0 | 0.00 | 0.05 | 0.05 | 77 | 1012.2 | |
| 20260903172517 | 79 | 0.0 | 1.0 | 0.00 | 0.05 | 0.05 | 77 | 1012.2 | |
| 20260903171517 | 79 | 0.0 | 0.0 | 0.00 | 0.05 | 0.05 | 78 | 1012.2 | |
| 20260903170517 | 78 | 0.0 | 0.0 | 0.00 | 0.05 | 0.05 | 78 | 1012.2 | |
| 20260903165517 | 78 | 0.0 | 1.0 | 0.00 | 0.05 | 0.05 | 78 | 1012.3 | |
| 20260903164517 | 78 | 0.0 | 1.0 | 0.00 | 0.05 | 0.05 | 78 | 1012.4 | |
| 20260903163520 | 77 | 0.0 | 1.0 | 0.00 | 0.05 | 0.05 | 83 | 1012.6 | |
| 20260903162520 | 75 | 0.0 | 3.0 | 0.00 | 0.05 | 0.05 | 83 | 1012.7 | |
| 20260903161531 | 74 | 0.0 | 1.0 | 0.00 | 0.05 | 0.05 | 85 | 1012.7 | |
| 20260903160536 | 73 | 0.0 | 1.0 | 0.00 | 0.05 | 0.05 | 86 | 1012.8 | |
| 20260903155557 | 73 | 0.0 | 1.0 | 0.00 | 0.05 | 0.05 | 88 | 1012.9 | |
| 20260903154537 | 71 | 0.0 | 3.0 | 0.00 | 0.05 | 0.05 | 89 | 1013.0 | |
| 20260903153545 | 71 | 0.0 | 5.0 | 0.00 | 0.05 | 0.05 | 90 | 1013.1 | |
| 20260903152537 | 71 | 0.0 | 1.0 | 0.00 | 0.05 | 0.05 | 90 | 1013.1 | |
| 20260903151521 | 71 | 0.0 | 3.0 | 0.00 | 0.05 | 0.05 | 90 | 1013.1 | |
| 20260903150537 | 71 | 0.0 | 3.0 | 0.00 | 0.05 | 0.05 | 91 | 1013.0 | |
| 20260903145557 | 71 | 0.0 | 3.0 | 0.00 | 0.05 | 0.05 | 90 | 1013.2 | |
| 20260903144518 | 70 | 0.0 | 2.0 | 0.00 | 0.05 | 0.05 | 92 | 1013.1 | |
| 20260903143517 | 70 | 225 | 1.0 | 4.0 | 0.00 | 0.05 | 0.05 | 92 | 1013.1 |
| 20260903142518 | 69 | 293 | 1.0 | 5.0 | 0.00 | 0.05 | 0.05 | 93 | 1013.2 |
| 20260903141520 | 69 | 248 | 1.0 | 5.0 | 0.00 | 0.05 | 0.05 | 94 | 1013.3 |
| 20260903140524 | 68 | 0.0 | 2.0 | 0.00 | 0.05 | 0.05 | 96 | 1013.1 | |
| 20260903135517 | 67 | 0.0 | 0.0 | 0.00 | 0.05 | 0.05 | 96 | 1013.3 | |
| 20260903134517 | 67 | 0.0 | 0.0 | 0.00 | 0.05 | 0.05 | 97 | 1013.4 | |
| 20260903133518 | 66 | 0.0 | 0.0 | 0.00 | 0.05 | 0.05 | 97 | 1013.5 | |
| 20260903132537 | 66 | 0.0 | 0.0 | 0.00 | 0.05 | 0.05 | 97 | 1013.5 | |
| 20260903131537 | 65 | 0.0 | 0.0 | 0.00 | 0.05 | 0.05 | 97 | 1013.8 | |
| 20260903130517 | 65 | 0.0 | 0.0 | 0.00 | 0.05 | 0.05 | 97 | 1014.0 | |
| 20260903125525 | 65 | 0.0 | 1.0 | 0.00 | 0.05 | 0.05 | 97 | 1014.0 | |
| 20260903124517 | 65 | 0.0 | 1.0 | 0.00 | 0.05 | 0.05 | 97 | 1014.0 | |
| 20260903123517 | 65 | 0.0 | 0.0 | 0.00 | 0.05 | 0.05 | 97 | 1014.0 | |
| 20260903122526 | 64 | 0.0 | 0.0 | 0.00 | 0.05 | 0.05 | 97 | 1014.1 | |
| 20260903121517 | 64 | 0.0 | 0.0 | 0.00 | 0.05 | 0.05 | 97 | 1014.3 | |
| 20260903120522 | 64 | 0.0 | 0.0 | 0.00 | 0.05 | 0.05 | 97 | 1014.4 | |
| 20260903115516 | 64 | 0.0 | 1.0 | 0.00 | 0.05 | 0.05 | 97 | 1014.5 | |
| 20260903114537 | 64 | 0.0 | 0.0 | 0.00 | 0.05 | 0.05 | 96 | 1014.5 | |
| 20260903113517 | 64 | 0.0 | 0.0 | 0.00 | 0.05 | 0.05 | 96 | 1014.7 | |
| 20260903112517 | 64 | 0.0 | 0.0 | 0.00 | 0.05 | 0.05 | 96 | 1014.6 | |
| 20260903111537 | 64 | 0.0 | 0.0 | 0.00 | 0.05 | 0.05 | 96 | 1014.6 | |
| 20260903110519 | 63 | 0.0 | 0.0 | 0.00 | 0.05 | 0.05 | 96 | 1014.8 | |
| 20260903105517 | 63 | 0.0 | 0.0 | 0.00 | 0.05 | 0.05 | 96 | 1014.6 | |
| 20260903104516 | 63 | 0.0 | 0.0 | 0.00 | 0.05 | 0.05 | 96 | 1014.6 | |
| 20260903103517 | 63 | 0.0 | 0.0 | 0.00 | 0.05 | 0.05 | 96 | 1014.7 | |
| 20260903102519 | 63 | 0.0 | 0.0 | 0.00 | 0.05 | 0.05 | 96 | 1014.3 | |
| 20260903101516 | 63 | 0.0 | 0.0 | 0.00 | 0.05 | 0.05 | 96 | 1014.2 | |
| 20260903100518 | 63 | 0.0 | 0.0 | 0.00 | 0.05 | 0.05 | 96 | 1014.2 | |
| 20260903095519 | 63 | 0.0 | 0.0 | 0.00 | 0.05 | 0.05 | 96 | 1014.2 | |
| 20260903094518 | 63 | 0.0 | 0.0 | 0.00 | 0.05 | 0.05 | 96 | 1014.3 | |
| 20260903093516 | 63 | 0.0 | 0.0 | 0.00 | 0.05 | 0.05 | 96 | 1014.2 | |
| 20260903092544 | 63 | 0.0 | 0.0 | 0.00 | 0.05 | 0.05 | 95 | 1014.3 | |
| 20260903091639 | 63 | 0.0 | 0.0 | 0.00 | 0.05 | 0.05 | 95 | 1014.4 | |
| 20260903090557 | 63 | 0.0 | 0.0 | 0.00 | 0.05 | 0.05 | 95 | 1014.7 | |
| 20260903085521 | 63 | 0.0 | 0.0 | 0.00 | 0.05 | 0.05 | 95 | 1014.8 | |
| 20260903084523 | 63 | 0.0 | 0.0 | 0.00 | 0.05 | 0.05 | 95 | 1014.8 | |
| 20260903083518 | 63 | 0.0 | 0.0 | 0.00 | 0.05 | 0.05 | 95 | 1014.8 | |
| 20260903082544 | 63 | 0.0 | 0.0 | 0.00 | 0.05 | 0.05 | 95 | 1014.8 | |
| 20260903081521 | 63 | 0.0 | 0.0 | 0.00 | 0.05 | 0.05 | 95 | 1014.8 | |
| 20260903080518 | 63 | 0.0 | 0.0 | 0.00 | 0.05 | 0.05 | 95 | 1015.0 | |
| 20260903075537 | 63 | 0.0 | 0.0 | 0.00 | 0.05 | 0.05 | 94 | 1014.9 | |
| 20260903074526 | 63 | 0.0 | 0.0 | 0.00 | 0.05 | 0.05 | 94 | 1014.9 | |
| 20260903073536 | 63 | 0.0 | 0.0 | 0.00 | 0.05 | 0.05 | 94 | 1014.9 | |
| 20260903072535 | 63 | 0.0 | 0.0 | 0.00 | 0.05 | 0.05 | 94 | 1015.0 | |
| 20260903071538 | 63 | 0.0 | 0.0 | 0.01 | 0.05 | 0.05 | 94 | 1015.1 | |
| 20260903070529 | 63 | 0.0 | 1.0 | 0.02 | 0.05 | 0.05 | 93 | 1015.2 | |
| 20260903065524 | 63 | 0.0 | 1.0 | 0.03 | 0.05 | 0.05 | 93 | 1014.9 | |
| 20260903064518 | 63 | 0.0 | 1.0 | 0.05 | 0.05 | 0.05 | 93 | 1014.9 | |
| 20260903063517 | 63 | 0.0 | 0.0 | 0.05 | 0.05 | 0.05 | 92 | 1015.1 | |
| 20260903062559 | 63 | 0.0 | 0.0 | 0.05 | 0.05 | 0.05 | 91 | 1015.3 | |
| 20260903061516 | 64 | 0.0 | 0.0 | 0.04 | 0.04 | 0.04 | 89 | 1015.8 | |
| 20260903060516 | 64 | 0.0 | 1.0 | 0.03 | 0.03 | 0.03 | 88 | 1015.9 | |
| 20260903055519 | 65 | 0.0 | 0.0 | 0.02 | 0.02 | 0.02 | 86 | 1016.3 | |
| 20260903054517 | 65 | 0.0 | 1.0 | 0.00 | 0.00 | 0.00 | 85 | 1016.8 | |
| 20260903053543 | 65 | 0.0 | 1.0 | 0.00 | 0.00 | 0.00 | 83 | 1017.0 | |
| 20260903052516 | 66 | 0.0 | 1.0 | 0.00 | 0.00 | 0.00 | 82 | 1017.1 | |
| 20260903051516 | 66 | 0.0 | 1.0 | 0.00 | 0.00 | 0.00 | 81 | 1017.2 | |
| 20260903050519 | 66 | 0.0 | 3.0 | 0.00 | 0.00 | 0.00 | 81 | 1017.1 | |
| 20260903045517 | 66 | 0.0 | 4.0 | 0.00 | 0.00 | 0.00 | 81 | 1017.4 | |
| 20260903044518 | 66 | 0.0 | 1.0 | 0.00 | 0.00 | 0.00 | 80 | 1017.4 | |
| 20260903043516 | 66 | 0.0 | 1.0 | 0.00 | 0.00 | 0.00 | 80 | 1017.2 | |
| 20260903042517 | 67 | 0.0 | 1.0 | 0.00 | 0.00 | 0.00 | 80 | 1017.2 | |
| 20260903041517 | 67 | 0.0 | 1.0 | 0.00 | 0.00 | 0.00 | 80 | 1017.4 | |
| 20260903040518 | 66 | 0.0 | 0.0 | 0.00 | 0.00 | 0.00 | 80 | 1017.4 | |
| 20260903040016 | 66 | 0.0 | 0.0 | 0.00 | 0.00 | 0.00 | 80 | 1017.4 | |
| 20260903035018 | 67 | 0.0 | 1.0 | 0.00 | 0.00 | 0.00 | 80 | 1017.4 | |
| 20260903034036 | 67 | 0.0 | 1.0 | 0.00 | 0.00 | 0.00 | 79 | 1017.2 | |
| 20260903033017 | 67 | 0.0 | 0.0 | 0.00 | 0.00 | 0.00 | 77 | 1017.1 | |
| 20260903032024 | 67 | 0.0 | 0.0 | 0.00 | 0.00 | 0.00 | 77 | 1017.0 | |
| 20260903031020 | 67 | 0.0 | 1.0 | 0.00 | 0.00 | 0.00 | 76 | 1017.3 | |
| 20260903030101 | 67 | 0.0 | 0.0 | 0.00 | 0.00 | 0.00 | 75 | 1017.4 | |
| 20260903025040 | 67 | 0.0 | 1.0 | 0.00 | 0.00 | 0.00 | 73 | 1017.8 | |
| 20260903024017 | 67 | 0.0 | 1.0 | 0.00 | 0.00 | 0.00 | 73 | 1018.0 | |
| 20260903023017 | 68 | 0.0 | 0.0 | 0.00 | 0.00 | 0.00 | 72 | 1018.2 | |
| 20260903022057 | 68 | 0.0 | 1.0 | 0.00 | 0.00 | 0.00 | 71 | 1018.5 | |
| 20260903021036 | 68 | 0.0 | 0.0 | 0.00 | 0.00 | 0.00 | 71 | 1018.6 | |
| 20260903020016 | 68 | 0.0 | 0.0 | 0.00 | 0.02 | 0.00 | 70 | 1018.8 | |
| 20260903015016 | 68 | 0.0 | 1.0 | 0.00 | 0.02 | 0.00 | 70 | 1018.7 | |
| 20260903014017 | 68 | 0.0 | 0.0 | 0.00 | 0.02 | 0.00 | 70 | 1018.8 | |
| 20260903013017 | 68 | 0.0 | 1.0 | 0.00 | 0.02 | 0.00 | 70 | 1018.8 | |
| 20260903012017 | 68 | 0.0 | 0.0 | 0.00 | 0.02 | 0.00 | 70 | 1018.6 | |
| 20260903011016 | 69 | 0.0 | 1.0 | 0.00 | 0.02 | 0.00 | 69 | 1018.1 | |
| 20260903010016 | 69 | 0.0 | 1.0 | 0.00 | 0.02 | 0.00 | 69 | 1017.8 | |
| 20260903005016 | 69 | 0.0 | 1.0 | 0.00 | 0.02 | 0.00 | 71 | 1017.8 | |
| 20260903004021 | 69 | 0.0 | 2.0 | 0.00 | 0.02 | 0.00 | 71 | 1018.1 | |
| 20260903003016 | 69 | 0.0 | 1.0 | 0.00 | 0.02 | 0.00 | 74 | 1018.2 | |
| 20260903002019 | 70 | 0.0 | 1.0 | 0.00 | 0.02 | 0.00 | 75 | 1018.5 | |
| 20260903001036 | 70 | 0.0 | 1.0 | 0.00 | 0.02 | 0.00 | 74 | 1018.3 | |
| 20260903000022 | 70 | 0.0 | 1.0 | 0.00 | 0.02 | 0.00 | 74 | 1018.3 | |
| 20260902235022 | 70 | 0.0 | 1.0 | 0.00 | 0.02 | 0.00 | 72 | 1018.1 | |
| 20260902234040 | 71 | 0.0 | 0.0 | 0.00 | 0.02 | 0.00 | 71 | 1018.2 | |
| 20260902233019 | 71 | 0.0 | 1.0 | 0.00 | 0.02 | 0.00 | 70 | 1018.3 | |
| 20260902232017 | 71 | 0.0 | 0.0 | 0.00 | 0.02 | 0.00 | 69 | 1018.6 | |
| 20260902231016 | 71 | 0.0 | 2.0 | 0.00 | 0.02 | 0.00 | 70 | 1019.1 | |
| 20260902230016 | 72 | 0.0 | 1.0 | 0.00 | 0.02 | 0.00 | 74 | 1019.3 | |
| 20260902225019 | 72 | 0.0 | 0.0 | 0.00 | 0.02 | 0.00 | 73 | 1019.3 | |
| 20260902224017 | 72 | 0.0 | 0.0 | 0.00 | 0.02 | 0.00 | 73 | 1019.5 | |
| 20260902223016 | 72 | 0.0 | 4.0 | 0.00 | 0.02 | 0.00 | 72 | 1019.5 | |
| 20260902222016 | 73 | 225 | 1.0 | 4.0 | 0.00 | 0.02 | 0.00 | 72 | 1019.4 |
| 20260902221016 | 73 | 0.0 | 4.0 | 0.00 | 0.02 | 0.00 | 73 | 1019.2 | |
| 20260902220036 | 73 | 0.0 | 1.0 | 0.00 | 0.02 | 0.00 | 73 | 1019.2 | |
| 20260902215017 | 73 | 0.0 | 1.0 | 0.00 | 0.02 | 0.00 | 74 | 1019.2 | |
| 20260902214037 | 73 | 0.0 | 1.0 | 0.00 | 0.02 | 0.00 | 73 | 1019.3 |